Regional Weather Roundup
Issued by NWS Wakefield, VA

Home | Current Version | Previous Version | Graphics & Text | Print | Product List | Glossary On
Versions: 1 2 3 4 5 6 7 8 9 10 11 12 13 14 15 16 17 18 19 20 21 22 23 24 25 26 27 28 29 30 31 32 33 34 35 36 37 38 39 40 41 42 43 44 45 46 47 48 49 50
000
ASUS41 KAKQ 152310
RWRAKQ

REGIONAL WEATHER ROUNDUP
NATIONAL WEATHER SERVICE WAKEFIELD VA
700 PM EDT MON SEP 15 2014

Note: "fair" indicates few or no clouds below 12,000 feet with no
significant weather and/or obstructions to visibility. * = Denotes
station may not report precipitation (e.g., rain,snow,etc.),
thunder or fog.

VAZ042-051-052>054-056-160000-
NORTHERN VIRGINIA

CITY           SKY/WX    TMP DP  RH WIND       PRES   REMARKS
WASH NATIONAL  MOCLDY    73  51  46 S5        30.11F
DULLES         MOCLDY    68  54  60 S6        30.10F
FORT BELVOIR   PTCLDY    66  60  80 SE2       30.11F
QUANTICO       MOCLDY    72  58  61 SE9       30.11F
FREDERICKSBRG* MOCLDY    72  58  62 E5        30.10F
STAFFORD*      MOCLDY    69  59  71 CALM      30.14F
WARRENTON      MOCLDY    70  62  75 SE3       30.10F
CULPEPER*      PTCLDY   N/A N/A N/A CALM      30.10F
MANASSAS*      CLEAR     70  61  73 SE5       30.10
LEESBURG*      PTCLDY    70  59  68 CALM      30.11F
WINCHESTER     MOCLDY    68  54  60 E5        30.10S
FRONT ROYAL*   MOCLDY    66  55  68 CALM      30.08F
LURAY*         MOCLDY    70  57  64 CALM      30.10S
$$

VAZ048-049-060>072-079>083-160000-
CENTRAL AND SOUTH CENTRAL VIRGINIA...AND NORTH CENTRAL NORTH CAROLINA

CITY           SKY/WX    TMP DP  RH WIND       PRES   REMARKS
RICHMOND       CLOUDY    73  58  59 S6        30.12S
CHESTERFIELD*  MOCLDY    70  54  56 SW6       30.14R
PETERSBURG*    MOCLDY    68  63  83 CALM      30.13S
HANOVER        MOCLDY    71  60  68 S3        30.13F
TAPPAHANNOCK*  CLOUDY    70  58  66 SE5       30.12F
CHARLOTTSVILLE MOCLDY    70  59  68 S7        30.10F
ORANGE*        MOCLDY    70  57  64 E3        30.11F
LOUISA*        MOCLDY    70  61  73 S3        30.11S
FARMVILLE*     MOCLDY    72  61  68 S6        30.11R
CREWE*         CLOUDY    72  65  78 CALM      30.13S
FORT PICKETT*  CLOUDY    68  62  82 S3        30.13S
LUNENBURG*     CLOUDY    68  65  88 S3        30.13S
SOUTH HILL*    CLOUDY    72  66  83 CALM      30.18S
LAWRENCEVILLE* CLOUDY    69  65  87 CALM      30.13S
ROANOKE RAPIDS CLOUDY    70  64  83 CALM      30.13S
RALEIGH        CLOUDY    71  64  78 S5        30.15R
$$

VAZ088>098-160000-
SOUTHEAST VIRGINIA

CITY           SKY/WX    TMP DP  RH WIND       PRES   REMARKS
NORFOLK        CLOUDY    69  57  65 S6        30.14S
VIRGINIA BEACH CLOUDY    69  57  65 SE6       30.13F
NORFOLK NAVAL  CLOUDY    70  58  65 SE8       30.14F
WEST POINT*    NOT AVBL
NEWPORT NEWS   CLOUDY    73  60  63 E6        30.12F
LANGLEY AFB    CLOUDY    70  60  69 SE10      30.13S
FORT EUSTIS    CLOUDY    71  58  64 SE6       30.11F
WILLIAMSBURG*  CLOUDY    73  64  73 S6        30.13F
HR EXEC AP*    CLOUDY    66  61  82 SE5       30.15F
FRANKLIN*        N/A     72  63  73 CALM      30.13S
WAKEFIELD      CLOUDY    70  65  84 CALM      30.12F
$$

VAZ020-022-025-037-045-160000-
WEST CENTRAL AND SOUTHWEST VIRGINIA

CITY           SKY/WX    TMP DP  RH WIND       PRES   REMARKS
STAUNTON*      MOCLDY    70  56  61 S8        30.12S
HOT SPRINGS VA CLOUDY    58  52  79 SW5       30.22S
LYNCHBURG      CLOUDY    69  63  81 S7        30.13F
DANVILLE       CLOUDY    71  65  81 S3        30.13S
SOUTH BOSTON*  NOT AVBL
MARTINSVILLE   CLOUDY    70  64  81 W5        30.17S
ROANOKE        CLOUDY    70  62  76 SE9       30.14S
BLACKSBURG     MOCLDY    70  66  88 SE5       30.17S
DUBLIN*        MOCLDY    69  65  85 S9        30.16S
MARION*        CLOUDY    69  61  77 W7        30.20S
HILLSVILLE*    CLOUDY    62  60  96 S5        30.19F
RICHLANDS*     MOCLDY    70  62  76 W9        30.19S
WISE*          CLOUDY    66  61  82 S5        30.20F
ABINGDON*      CLOUDY    70  65  82 CALM      30.18R
$$

MDZ021>025-VAZ099-100-160000-
SOUTHERN MARYLAND AND THE DELMARVA PENINSULA

CITY           SKY/WX    TMP DP  RH WIND       PRES   REMARKS
PATUXENT RIVER MOCLDY    68  55  63 S6        30.12F
BAY BRIDGE APT   N/A     68  50  52 SE3       30.13S
LEONARDTOWN    MOCLDY    66  55  68 SE5       30.14S
DOVER          PTCLDY    65  53  63 SE5       30.11S
GEORGETOWN     PTCLDY    67  52  58 E9        30.14S
EASTON         MOCLDY    70  55  60 CALM      30.16F
CAMBRIDGE      PTCLDY    70  59  68 CALM      30.12F
SALISBURY        N/A    N/A N/A N/A MISG        N/A
OCEAN CITY     CLEAR     62  55  77 CALM      30.14F
WALLOPS ISLAND PTCLDY    68  56  65 S7        30.13F
ACCOMACK*      PTCLDY    64  55  72 SE3       30.13F
$$

NCZ012>017-030>032-160000-
EASTERN NORTH CAROLINA

CITY           SKY/WX    TMP DP  RH WIND       PRES   REMARKS
ELIZABETH CITY CLOUDY    69  60  73 E6        30.13F
AHOSKIE*       CLOUDY    69  65  87 CALM      30.14S
EDENTON*       CLOUDY    71  66  84 CALM      30.13S
CURRITUCK*     CLOUDY    70  58  66 CALM      30.14F
KILL DEVIL HLS CLOUDY    71  59  65 NE3       30.12F
MANTEO         CLOUDY    71  59  67 NE6       30.13F
CAPE HATTERAS  CLEAR     70  63  78 NE5       30.11F
TARBORO*       CLOUDY    72  65  79 CALM      30.14S
GOLDSBORO      CLOUDY    73  69  87 SE2       30.11S
WASHINGTON     MOCLDY    71  65  82 CALM      30.13S
GREENVILLE     CLOUDY    72  68  88 CALM      30.14S
NEW BERN       CLOUDY    75  66  73 CALM      30.13F
WILMINGTON     MOCLDY    74  67  78 CALM      30.12S
$$

VAZ048-160000-
ELSEWHERE

CITY           SKY/WX    TMP DP  RH WIND       PRES   REMARKS
HARRISBURG PA  MOCLDY    68  51  54 SW5       30.09F
BALTIMORE      MOCLDY    67  53  61 SE3       30.11F
ANNAPOLIS      PTCLDY    67  53  61 S7        30.12F
ANDREWS AFB    PTCLDY    66  57  74 E9        30.11F
WILMINGTON DE  PTCLDY    66  50  56 SW6       30.13S
PHILADELPHIA   PTCLDY    69  49  48 S8        30.12F
WILDWOOD NJ*   PTCLDY    64  50  59 SE3       30.14S
ATLANTIC CITY  PTCLDY    62  55  77 SE6       30.13F
HENDERSON NC   CLOUDY    69  62  79 CALM      30.14S
GREENSBORO     CLOUDY    71  64  78 S6        30.14S
ROCKY MOUNT    CLOUDY    71  67  87 CALM      30.13S
FAYETTEVILLE   CLOUDY    74  67  78 S3        30.13R
CHARLOTTE      MOCLDY    74  66  76 CALM      30.15S
$$

VAZ100-160000-
MARINE

STATION/POSITION TIME  TEMP    WIND        PRES    WAVE   SWELL
                       AIR SEA DIR/SP/G            HT/PER HT/PER
                 (UTC) (F)     (DEG/KT/KT) (MB)    (FT/S) (FT/S)
44066 TX TWR #4  2300   65 74   10/  8/ 12 1020.2R   2/ 7   2/ 7
CAPE MAY NJ      2300   66 76  120/  2/  3 1020.0R
LEWES DE         2300   69 72   30/  5/  6 1020.0F
15NM E FENWICK I 2300   67 73              1020.5R   2/ 7
OCEAN-CITY-INLET 2300   68 72  200/  3/  4 1020.1F
WACHAPREAGUE VA  2300   68 74  170/  4/  6 1020.4F
THOMAS POINT MD  2300   69 75  170/  6/  8 1020.8F
GOOSES REEF MD   2300   71     180/  8/ 10 1020.5F
COVE POINT MD    2300   69     180/  9/ 10 1020.0F
SOLOMONS ISLAND  2300      77                N/A
BISHOPS HEAD MD  2300   70 75  150/  5/  6 1019.8R
PINEY POINT MD   2300          150/ 11/ 13   N/A
POTOMAC MD       2300   70     160/  8/ 10 1019.6S
CAMBRIDGE MD     2300   71 75  140/  2/  4 1019.7F
LEWISETTA VA     2300   69 75  150/  6/  8 1019.6F
RAPPAHANNOCK LGT 2300          130/ 11/ 12 1020.7F
STINGRAY PT      2300   71     170/ 10/ 12   N/A
YORK RVR RNG VA  2300   70     150/ 12/ 14 1019.6F
YORKTOWN VA      2300   70 77  140/  7/  9 1019.8F
JAMESTOWN VA     2300   71     170/  6/  8   N/A
DOMINION TERM VA 2300   70     160/ 10/ 12 1020.2S
KIPTOPEKE VA     2300      79  140/  5/  8   N/A
CHES BAY BRIDGE  2300   70 76  140/  7/  9 1019.9F
CAPE HENRY VA    2300   69     160/  3/  6 1019.3S
CHESAPEAKE LGHT  2200   69     100/  6/  7 1021.4F
WILLOUBY STN VA  2300   69     130/  8/ 10 1019.0S
S CRANEY ISL VA  2300          200/  3/  5 1020.0S
CAPE HENRY BUOY  2300      76                N/A     2/13
1ST LANDING BUOY 2300   70     150/  8/ 10 1020.1F
CAPE CHARLES BUO 2300      75                N/A     2/ 8   2/ 8
OFFSHORE WE BUOY 2300      75                N/A     2/ 8   2/ 8
64NM E OF VA BCH 2300   71 79   30/  8/ 10 1020.2F   2/ 7   2/ 7
DUCK PIER NC     2300   71 76   80/  5/  9 1019.7F
44100 DUCK FRF   2300      74                N/A     2/ 7
44056 DUCK FRF   2300                        N/A     2/ 8
OREGON INLET NC  2300   71 74   50/  7/ 10 1020.1F
HATTERAS NC      2300   73 77   50/  5/  8 1020.1F
DIAMOND SHLS NC  2300   74     360/ 10/ 14 1019.5F   3/ 8   3/ 8
CAPE LOOKOUT NC  2300   74      60/  7/  9 1019.6F
$$


USA.gov is the U.S. government's official web portal to all federal, state and local government web resources and services.